Location: Unspecified
(40.7945°N, 111.1337°W)
Time: 00:26:19
(UTC-06:00)

Vanguard 1 - Pass Details

Date: 03 July 2019
Orbit: 653 x 3830 km, 34.3° (Epoch: 17 July)

Event Time Altitude Azimuth Distance (km) Brightness Sun altitude
Rises 22:31:44 0° 207° (SSW) 7,055 14.2 -14.2°
Reaches altitude 10° 22:36:43 10° 200° (SSW) 6,365 13.9 -14.8°
Maximum altitude 22:55:35 37° 141° (SE) 4,989 13.1 -17.0°
Drops below altitude 10° 23:14:13 10° 84° (E) 6,369 13.9 -19.0°
Sets 23:19:05 0° 77° (ENE) 7,069 14.3 -19.5°
